TimeMST,TemperatureF,Dew PointF,Humidity,Sea Level PressureIn,VisibilityMPH,Wind Direction,Wind SpeedMPH,Gust SpeedMPH,PrecipitationIn,Events,Conditions,WindDirDegrees,DateUTC
12:08 AM,10.4,8.6,92,29.83,10.0,SSW,9.2,-,N/A,,Clear,200,2013-02-22 07:08:00
12:29 AM,12.2,10.4,92,29.83,10.0,SSW,4.6,-,N/A,,Clear,210,2013-02-22 07:29:00
12:49 AM,8.6,5.0,85,29.83,10.0,South,6.9,-,N/A,,Clear,190,2013-02-22 07:49:00
1:09 AM,10.4,8.6,92,29.83,10.0,SSW,5.8,-,N/A,,Clear,210,2013-02-22 08:09:00
1:29 AM,17.6,14.0,86,29.83,10.0,South,4.6,-,N/A,,Clear,180,2013-02-22 08:29:00
1:47 AM,10.4,5.0,79,29.83,10.0,South,9.2,-,N/A,,Clear,190,2013-02-22 08:47:00
2:06 AM,8.6,5.0,85,29.81,10.0,SSW,8.1,-,N/A,,Clear,200,2013-02-22 09:06:00
2:26 AM,10.4,6.8,85,29.80,10.0,SSW,5.8,-,N/A,,Clear,200,2013-02-22 09:26:00
2:47 AM,6.8,3.2,85,29.80,10.0,South,8.1,-,N/A,,Clear,190,2013-02-22 09:47:00
3:09 AM,8.6,5.0,85,29.80,10.0,South,6.9,-,N/A,,Clear,170,2013-02-22 10:09:00
3:26 AM,8.6,3.2,79,29.80,10.0,South,6.9,-,N/A,,Clear,180,2013-02-22 10:26:00
3:48 AM,8.6,5.0,85,29.81,10.0,South,8.1,-,N/A,,Clear,180,2013-02-22 10:48:00
4:07 AM,10.4,5.0,79,29.81,10.0,South,8.1,-,N/A,,Clear,180,2013-02-22 11:07:00
4:29 AM,10.4,6.8,85,29.81,10.0,South,9.2,-,N/A,,Clear,180,2013-02-22 11:29:00
4:46 AM,10.4,5.0,79,29.82,10.0,South,8.1,-,N/A,,Clear,170,2013-02-22 11:46:00
5:09 AM,10.4,5.0,79,29.82,10.0,South,8.1,-,N/A,,Clear,170,2013-02-22 12:09:00
5:26 AM,10.4,5.0,79,29.83,10.0,South,6.9,-,N/A,,Clear,170,2013-02-22 12:26:00
5:45 AM,8.6,5.0,85,29.83,10.0,South,8.1,-,N/A,,Clear,170,2013-02-22 12:45:00
6:09 AM,8.6,5.0,85,29.83,10.0,SSE,9.2,-,N/A,,Scattered Clouds,160,2013-02-22 13:09:00
6:29 AM,8.6,5.0,85,29.83,10.0,South,8.1,-,N/A,,Scattered Clouds,170,2013-02-22 13:29:00
6:46 AM,8.6,5.0,85,29.84,10.0,SSE,9.2,-,N/A,,Clear,160,2013-02-22 13:46:00
6:47 AM,8.6,3.2,79,29.85,10.0,South,6.9,-,N/A,,Scattered Clouds,170,2013-02-22 13:47:00
6:57 AM,8.6,5.0,85,29.84,10.0,South,6.9,-,N/A,,Clear,170,2013-02-22 13:57:00
7:47 AM,10.4,8.6,92,29.87,30.0,South,6.9,-,N/A,,Scattered Clouds,170,2013-02-22 14:47:00
8:47 AM,21.2,15.8,80,29.90,30.0,SSE,6.9,-,N/A,,Mostly Cloudy,150,2013-02-22 15:47:00
9:50 AM,28.4,19.4,69,29.90,30.0,ESE,6.9,-,N/A,,Mostly Cloudy,110,2013-02-22 16:50:00
10:50 AM,30.2,19.4,64,29.91,30.0,East,6.9,-,N/A,,Mostly Cloudy,100,2013-02-22 17:50:00
12:47 PM,32.0,19.4,60,29.90,30.0,East,4.6,-,N/A,,Mostly Cloudy,90,2013-02-22 19:47:00
1:50 PM,32.0,21.2,64,29.87,30.0,SSE,9.2,-,N/A,,Scattered Clouds,150,2013-02-22 20:50:00
2:55 PM,33.8,21.2,60,29.87,30.0,South,4.6,-,N/A,,Scattered Clouds,170,2013-02-22 21:55:00
3:47 PM,33.8,19.4,56,29.87,30.0,SSE,4.6,-,N/A,,Partly Cloudy,150,2013-02-22 22:47:00
4:50 PM,32.0,19.4,60,29.87,30.0,ESE,6.9,-,N/A,,Partly Cloudy,110,2013-02-22 23:50:00
9:26 PM,23.0,19.4,86,29.87,10.0,SSW,12.7,-,N/A,,Clear,200,2013-02-23 04:26:00
9:49 PM,24.8,19.4,80,29.87,10.0,SSW,9.2,-,N/A,,Clear,200,2013-02-23 04:49:00
10:08 PM,23.0,17.6,80,29.86,10.0,SSW,10.4,-,N/A,,Clear,200,2013-02-23 05:08:00
10:29 PM,24.8,19.4,80,29.85,10.0,SSW,10.4,-,N/A,,Clear,210,2013-02-23 05:29:00
10:44 PM,24.8,17.6,74,29.85,10.0,South,8.1,-,N/A,,Clear,190,2013-02-23 05:44:00
11:09 PM,21.2,17.6,86,29.84,10.0,South,8.1,-,N/A,,Clear,190,2013-02-23 06:09:00
11:27 PM,19.4,14.0,80,29.84,10.0,South,9.2,-,N/A,,Clear,190,2013-02-23 06:27:00
11:44 PM,17.6,14.0,86,29.84,10.0,South,8.1,-,N/A,,Clear,190,2013-02-23 06:44:00